Weather History for LEGR - April, 2014

Change the Weather History Date:

Wednesday, April 30, 2014

  Actual Average Record
Temperature  
Mean Temperature 66 °F -  
Max Temperature 87 °F 76 °F 91 °F (1997)
Min Temperature 46 °F 49 °F 41 °F (2012)
Cooling Degree Days 2    
Growing Degree Days 16 (Base 50)    
Moisture  
Dew Point 43 °F    
Average Humidity 40    
Maximum Humidity 87    
Minimum Humidity 8    
Precipitation  
Precipitation 0.00 in - - ()
Sea Level Pressure  
Sea Level Pressure 29.96 in    
Wind  
Wind Speed 2 mph ()    
Max Wind Speed 14 mph    
Max Gust Speed 15 mph    
Visibility 18.5 miles    
Events      
Averages and records for this station are not official NWS values.
T = Trace of Precipitation, MM = Missing Value Source: Averaged Metar Reports

Daily Weather History Graph

Daily Weather History Graph

Search for Another Location

Airport or City:

Trip Planner

Search our weather history database for the weather conditions in past years. The results will help you decide how hot, cold, wet, or windy it might be!

Date:

Astronomy

Apr. 30, 2014 Rise Set
Actual Time 7:21 AM CEST 9:03 PM CEST
Civil Twilight 6:54 AM CEST 9:31 PM CEST
Nautical Twilight 6:20 AM CEST 10:05 PM CEST
Astronomical Twilight 5:44 AM CEST 10:40 PM CEST
Moon 8:12 AM CEST (4/30) 10:27 PM CEST (4/30)
Length of Visible Light 14h 37m
Length of Day
13h 41m
New Moon, 2% of the Moon is Illuminated
Apr 30
New Moon
May 7
First Quarter
May 14
Full
May 21
Last Quarter
May 28
New

Hourly Weather History & Observations

Time (CEST) Temp. Dew Point Humidity Pressure Visibility Wind Dir Wind Speed Gust Speed Precip Events Conditions
12:00 AM 62 °F 43 °F 38% 29.98 in 19 mi SSW 2.3 mph - -  
1:00 AM 59 °F 44 °F 47% 29.99 in 19 mi Calm Calm - -  
2:00 AM 55 °F 45 °F 60% 30.01 in 19 mi Calm Calm - -  
3:00 AM 53 °F 45 °F 66% 30.01 in 19 mi Calm Calm - -  
4:00 AM 51 °F 45 °F 74% 30.00 in 19 mi Calm Calm - -  
5:00 AM 49 °F 45 °F 79% 30.01 in 12 mi WSW 2.3 mph - -  
6:00 AM 49 °F 44 °F 76% 30.01 in 19 mi Calm Calm - -  
6:00 AM 50.0 °F 44.6 °F 82% 30.01 in - Calm Calm - N/A   Clear
6:30 AM 50.0 °F 44.6 °F 82% 30.01 in - Calm Calm - N/A   Clear
7:00 AM 47 °F 43 °F 79% 30.04 in 19 mi Calm Calm - -  
7:00 AM 48.2 °F 42.8 °F 82% 30.01 in - Calm Calm - N/A   Clear
7:30 AM 46.4 °F 42.8 °F 87% 30.01 in - Variable 1.2 mph - N/A   Clear
8:00 AM 51 °F 44 °F 69% 30.03 in 16 mi Calm Calm - -   Clear
8:00 AM 48.2 °F 44.6 °F 87% 30.01 in - Calm Calm - N/A   Clear
8:30 AM 53.6 °F 46.4 °F 77% 30.01 in - Calm Calm - N/A   Clear
9:00 AM 60 °F 47 °F 52% 30.00 in 19 mi Calm Calm - -   Clear
9:00 AM 57.2 °F 48.2 °F 72% 30.01 in - Calm Calm - N/A   Clear
9:30 AM 57.2 °F 48.2 °F 72% 30.04 in - Calm Calm - N/A   Clear
10:00 AM 66 °F 48 °F 41% 29.97 in 17 mi Calm Calm - -  
10:00 AM 62.6 °F 48.2 °F 59% 30.04 in - Calm Calm - N/A   Clear
10:30 AM 66.2 °F 48.2 °F 52% 30.01 in - Calm Calm - N/A   Clear
11:00 AM 72 °F 44 °F 26% 29.95 in 19 mi Calm Calm - -   Clear
11:00 AM 69.8 °F 50.0 °F 49% 30.01 in - Calm Calm - N/A   Clear
11:30 AM 71.6 °F 42.8 °F 35% 30.01 in - Calm Calm - N/A   Clear
12:00 PM 77 °F 47 °F 23% 29.93 in 19 mi NNW 1.2 mph - -  
12:00 PM 73.4 °F 46.4 °F 38% 30.01 in - Calm Calm - N/A   Clear
12:30 PM 75.2 °F 48.2 °F 38% 30.01 in - Variable 1.2 mph - N/A   Clear
1:00 PM 81 °F 44 °F 17% 29.90 in 19 mi North 1.2 mph - -  
1:00 PM 78.8 °F 48.2 °F 34% 30.01 in - Variable 1.2 mph - N/A   Clear
1:30 PM 78.8 °F 41.0 °F 26% 29.98 in - Variable 2.3 mph - N/A   Clear
2:00 PM 84 °F 36 °F 10% 29.87 in 19 mi NW 3.5 mph - -  
2:00 PM 80.6 °F 35.6 °F 20% 29.98 in - WNW 3.5 mph - N/A   Clear
2:30 PM 82.4 °F 39.2 °F 21% 29.98 in - West 5.8 mph - N/A   Clear
3:00 PM 85 °F 38 °F 10% 29.84 in 19 mi NW 4.6 mph - -  
3:00 PM 84.2 °F 39.2 °F 20% 29.98 in - Variable 2.3 mph - N/A   Clear
3:30 PM 84.2 °F 41.0 °F 22% 29.95 in - West 4.6 mph - N/A   Clear
4:00 PM 87 °F 37 °F 9% 29.83 in 19 mi NW 3.5 mph - -  
4:00 PM 84.2 °F 35.6 °F 18% 29.95 in - Variable 3.5 mph 15.0 mph N/A   Clear
4:30 PM 84.2 °F 42.8 °F 23% 29.95 in - West 5.8 mph - N/A   Clear
5:00 PM 87 °F 42 °F 12% 29.81 in 19 mi West 9.2 mph - -   Scattered Clouds
5:00 PM 84.2 °F 41.0 °F 22% 29.92 in - WSW 8.1 mph - N/A   Clear
5:30 PM 84.2 °F 39.2 °F 20% 29.92 in - WNW 10.4 mph - N/A   Clear
6:00 PM 87 °F 35 °F 8% 29.80 in 19 mi NW 10.4 mph - -  
6:00 PM 84.2 °F 41.0 °F 22% 29.92 in - WNW 13.8 mph - N/A   Clear
6:30 PM 84.2 °F 41.0 °F 22% 29.92 in - North 6.9 mph - N/A   Clear
7:00 PM 84 °F 31 °F 8% 29.81 in 19 mi North 8.1 mph - -  
7:00 PM 84.2 °F 37.4 °F 19% 29.92 in - NNW 8.1 mph - N/A   Clear
7:30 PM 82.4 °F 35.6 °F 19% 29.92 in - North 10.4 mph - N/A   Clear
8:00 PM 82 °F 35 °F 10% 29.83 in 19 mi NNW 9.2 mph - -   Clear
8:00 PM 80.6 °F 35.6 °F 20% 29.92 in - NNW 8.1 mph - N/A   Clear
8:30 PM 78.8 °F 41.0 °F 26% 29.92 in - NNW 6.9 mph - N/A   Clear
9:00 PM 73 °F 41 °F 21% 29.87 in 19 mi NW 4.6 mph - -  
9:00 PM 73.4 °F 41.0 °F 31% 29.95 in - NW 3.5 mph - N/A   Clear
9:30 PM 69.8 °F 44.6 °F 40% 29.95 in - NW 4.6 mph - N/A   Clear
10:00 PM 68 °F 45 °F 32% 29.91 in 19 mi West 2.3 mph - -  
10:00 PM 68.0 °F 44.6 °F 43% 29.95 in - Variable 2.3 mph - N/A   Clear
10:30 PM 68.0 °F 46.4 °F 46% 29.98 in - WSW 3.5 mph - N/A   Clear
11:00 PM 65 °F 46 °F 39% 29.94 in 19 mi SSW 3.5 mph - -   Clear
11:00 PM 66.2 °F 46.4 °F 49% 29.98 in - SSW 3.5 mph - N/A   Clear